Location: Sherrills_Ford_Terrell
(35.6000°N, 80.9830°W)
Time: 11:22:03
(UTC-04:00)

ISS - Visible Passes

Search period start: 23 October 2017 00:00
Search period end: 02 November 2017 00:00
Orbit: 400 x 408 km, 51.6° (Epoch: 24 October)

Date Brightness Start Highest point End Pass type
(mag) Time Alt. Az. Time Alt. Az. Time Alt. Az.
27 Oct -0.2 06:30:37 10° SE 06:30:59 10° SE 06:31:21 10° ESE visible
28 Oct -3.3 07:11:28 10° SW 07:14:39 61° SE 07:17:52 10° NE visible
29 Oct -1.8 06:19:33 10° SSW 06:22:21 27° SE 06:25:10 10° ENE visible
30 Oct -0.8 05:30:02 13° SE 05:30:07 13° SE 05:31:45 10° E visible
30 Oct -3.5 07:03:07 10° WSW 07:06:16 46° NW 07:09:25 10° NE visible
31 Oct -3.9 06:13:25 65° SSW 06:13:49 81° SE 06:17:04 10° NE visible
01 Nov -0.6 05:23:50 14° ENE 05:23:50 14° ENE 05:24:27 10° ENE visible
01 Nov -2.3 06:56:31 16° WNW 06:57:58 21° NNW 07:00:33 10° NNE visible
